www.pogodaiklimat.ru

Погода и климат >> Архив погоды >> Австралия >> Южная Австралия >> Сидуна


ПОГОДА в Сидуне

  • Прогноз погоды в Сидуне
  • Монитор погоды в Сидуне

АРХИВ ПОГОДЫ в Сидуне

Время (UTC), дата Ветер
(напр.,м/с)
 
Видим.   Явления Облачность Т
(С)
Тd
(С)
f
(%)
Тe
(С)
Тes
(С)
Комфортность P
(гПа)
Po
(гПа)
Тmin
(С)
Tmax
(С)
R
(мм)
R24
(мм)
S
(см)
07 18.06 Ю 5 н/о н/о +13.2 +8.9 75 +11 +11 1026.7 1024.8
08 18.06 Ю 2 н/о 9/9 1000 м
[]
+11.8 +7.5 75 +11 +11 1026.9 1025.0
09 18.06 Ю 2 н/о н/о +9.9 +7.2 83 +8 +8 1026.9 1025.0
10 18.06 ЮВ 3 н/о н/о +9.3 +7.7 90 +7 +7 1027.3 1025.4
11 18.06 ЮВ 2 н/о 10/10 1500 м
[]
+9.0 +7.8 92 +7 +7 1027.6 1025.7
12 18.06 ЮВ 3 н/о н/о +8.9 +7.8 93 +7 +7 1027.6 1025.7
13 18.06 штиль 0 н/о н/о +8.9 +7.8 93 +8 +8 1027.3 1025.4
14 18.06 ЮВ 3 н/о 5/5 1500 м
[]
+8.2 +7.1 93 +6 +6 1027.2 1025.3 +15.4
15 18.06 ЮВ 2 н/о н/о +7.2 +6.5 95 +5 +5 1027.1 1025.2
16 18.06 ЮВ 2 н/о н/о +7.1 +6.5 96 +5 +5 1026.8 1024.9
17 18.06 ЮВ 3 н/о 10/10 1000 м
[]
+7.4 +6.8 96 +5 +5 1027.1 1025.2
18 18.06 ЮВ 3 н/о н/о +6.6 +6.0 96 +4 +4 1026.7 1024.8
19 18.06 ЮВ 2 н/о н/о +6.6 +6.2 97 +5 +5 1026.6 1024.7
20 18.06 ЮВ 4 н/о 8/8 1500 м
[]
+7.1 +6.7 97 +4 +4 1026.4 1024.5
21 18.06 ЮВ 2 н/о н/о +6.9 +6.3 96 +4 +4 1026.7 1024.8
22 18.06 ЮВ 3 н/о н/о +6.1 +5.4 95 +3 +3 1027.1 1025.2
23 18.06 В 3 н/о 6/6 1500 м
[]
+7.1 +6.5 96 +4 +4 1027.6 1025.7
00 19.06 С 3 н/о н/о +9.5 +8.3 92 +7 +7 1028.2 1026.3
01 19.06 С 5 н/о н/о +13.8 +4.4 53 +12 +12 1028.3 1026.4
02 19.06 СЗ 4 н/о 4/4 1500 м
[]
+14.1 +4.9 54 +13 +13 1028.2 1026.3 +6.0
03 19.06 З 4 н/о н/о +14.8 +3.3 46 +14 +14 1027.0 1025.1
04 19.06 З 4 н/о н/о +15.2 +4.0 47 +14 +14 1026.2 1024.3
05 19.06 З 3 н/о н/о +15.4 +3.2 44 +15 +15 1025.4 1023.5
06 19.06 З 3 н/о н/о +15.1 +3.9 47 +15 +15 1025.1 1023.2
07 19.06 З 3 н/о н/о +14.8 +5.1 52 +14 +14 1025.2 1023.3
08 19.06 Ю 3 н/о 10/10 1500 м
[]
+11.7 +6.0 68 +10 +10 1025.5 1023.6
09 19.06 Ю 2 н/о н/о +9.7 +5.5 75 +8 +8 1025.8 1023.9
10 19.06 Ю 2 н/о н/о +7.6 +5.1 84 +5 +5 1026.0 1024.1
11 19.06 Ю 3 н/о 9/9 1500 м
[]
+9.0 +6.8 86 +7 +7 1026.4 1024.5
12 19.06 Ю 2 н/о н/о +7.9 +5.7 86 +6 +6 1026.3 1024.4
13 19.06 Ю 2 н/о н/о +5.9 +4.4 90 +4 +4 1026.4 1024.5
14 19.06 Ю 2 н/о н/о +5.0 +3.5 90 +3 +3 1026.1 1024.2 +16.1
15 19.06 Ю 2 н/о н/о +4.8 +3.6 92 +3 +3 1026.0 1024.1
16 19.06 Ю 2 н/о н/о +4.6 +3.6 93 +2 +2 1025.7 1023.8
17 19.06 С 3 н/о н/о +4.8 +3.8 93 +1 +1 1025.9 1024.0
18 19.06 С 3 н/о н/о +4.6 +3.6 93 +1 +1 1025.7 1023.8
19 19.06 С 3 н/о н/о +4.9 +4.0 94 +2 +2 1025.6 1023.7
20 19.06 С 3 н/о н/о +4.2 +3.5 95 0 0 1025.7 1023.8
21 19.06 С 3 н/о н/о +4.4 +3.8 96 +1 +1 1026.1 1024.2
22 19.06 С 3 н/о н/о +4.3 +3.7 96 0 0 1026.3 1024.4
23 19.06 С 4 н/о н/о +6.3 +5.6 95 +3 +3 1026.7 1024.8
00 20.06 С 5 н/о н/о +9.2 +5.9 80 +6 +6 1026.9 1025.0
01 20.06 С 6 н/о н/о +12.5 +5.9 64 +10 +10 1026.9 1025.0
02 20.06 СЗ 5 н/о н/о +15.0 +5.2 52 +14 +14 1026.4 1024.5 +3.6
03 20.06 СЗ 7 н/о н/о +16.0 +5.0 48 +15 +15 1025.6 1023.7
04 20.06 СЗ 6 н/о н/о +16.1 +4.8 47 +15 +15 1024.8 1022.9
05 20.06 З 7 н/о 1/0
[]
+16.2 +4.6 46 +15 +15 1024.6 1022.7
06 20.06 З 5 н/о н/о +16.3 +6.4 52 +15 +15 1024.4 1022.5
07 20.06 З 6 н/о н/о +15.3 +6.8 57 +14 +14 1024.6 1022.7
08 20.06 З 5 н/о 10/10 1000 м
[]
+14.6 +7.9 64 +13 +13 1025.0 1023.1
09 20.06 З 5 н/о н/о +13.4 +8.5 72 +11 +11 1025.6 1023.7
10 20.06 ЮЗ 6 н/о н/о +12.4 +11.5 94 +10 +10 1026.1 1024.2
11 20.06 З 4 5000 м в посл. час дождь {туман} 10/10 300 м
[]
+11.9 +11.1 95 +10 +10 1026.1 1024.2 1
12 20.06 СЗ 4 н/о н/о +11.6 +11.1 97 +9 +9 1026.3 1024.4
13 20.06 СЗ 3 н/о н/о +11.8 +11.3 97 +10 +10 1026.5 1024.6
14 20.06 СЗ 3 8000 м в посл. час дождь {туман} 9/9 50 м
[]
+11.4 +11.1 98 +9 +9 1026.8 1024.9 +16.9
15 20.06 С 3 н/о н/о +10.8 +10.5 98 +9 +9 1026.3 1024.4
16 20.06 С 2 н/о н/о +10.4 +10.2 99 +9 +9 1025.9 1024.0
17 20.06 С 3 н/о {туман} 10/10 1500 м
[]
+10.3 +10.1 99 +8 +8 1025.9 1024.0 1
18 20.06 С 2 н/о н/о +9.8 +9.7 99 +8 +8 1026.1 1024.2
19 20.06 С 3 н/о н/о +9.2 +9.1 99 +7 +7 1025.9 1024.0
20 20.06 С 3 н/о н/о +8.4 +8.3 99 +5 +5 1026.1 1024.2
21 20.06 С 3 н/о н/о +7.9 +7.8 99 +5 +5 1026.5 1024.6
22 20.06 С 3 н/о н/о +8.6 +8.5 99 +6 +6 1027.0 1025.1
23 20.06 С 3 н/о н/о +8.2 +8.1 99 +5 +5 1027.5 1025.6 2
00 21.06 С 4 н/о н/о +10.6 +10.1 97 +8 +8 1028.3 1026.4
01 21.06 С 6 н/о н/о +11.3 +9.6 89 +8 +8 1028.7 1026.8
02 21.06 С 4 н/о 4/4 1500 м
[]
+14.1 +11.3 83 +13 +13 1028.4 1026.5 +8.0
03 21.06 СЗ 4 н/о н/о +15.4 +11.0 75 +15 +15 1027.8 1025.9
04 21.06 СЗ 4 н/о н/о +16.2 +8.2 59 +16 +16 1027.0 1025.1
05 21.06 З 3 н/о туман местами 1/1 1500 м
[]
+16.3 +7.8 57 +16 +16 1026.5 1024.6 0.2
06 21.06 ЮЗ 3 н/о н/о +15.7 +9.8 68 +15 +15 1026.5 1024.6
07 21.06 ЮЗ 2 н/о н/о +15.8 +8.8 63 +16 +16 1026.4 1024.5
08 21.06 Ю 3 н/о 5/0
[]
+13.3 +10.1 81 +12 +12 1026.8 1024.9
09 21.06 ЮВ 3 н/о н/о +10.2 +8.6 90 +8 +8 1027.1 1025.2
10 21.06 ЮВ 4 н/о н/о +8.5 +7.4 93 +5 +5 1027.5 1025.6
11 21.06 В 4 н/о н/о +7.7 +6.6 93 +4 +4 1027.9 1026.0
12 21.06 В 4 н/о н/о +8.4 +7.5 94 +5 +5 1028.2 1026.3
13 21.06 В 4 н/о н/о +6.6 +5.9 95 +3 +3 1028.2 1026.3
14 21.06 СВ 4 н/о н/о +6.6 +6.2 97 +3 +3 1028.1 1026.2 +17.1
15 21.06 СВ 5 н/о н/о +6.2 +5.6 96 +2 +2 1027.6 1025.7
16 21.06 В 4 н/о н/о +5.7 +5.3 97 +1 +1 1027.2 1025.3
17 21.06 СВ 5 н/о н/о +5.0 +4.0 93 0 0 1027.0 1025.1
18 21.06 СВ 4 н/о н/о +4.4 +2.8 89 0 0 1027.1 1025.2
19 21.06 СВ 3 н/о н/о +3.0 +1.4 89 -1 -1 1027.4 1025.5
20 21.06 СВ 3 н/о 9/0
[]
+3.9 +2.1 88 0 0 1027.8 1025.9
21 21.06 СВ 4 н/о н/о +4.6 +2.5 86 +1 +1 1028.2 1026.3
22 21.06 С 3 н/о н/о +4.6 +1.1 78 +1 +1 1028.5 1026.6
23 21.06 СВ 3 н/о 6/0
[]
+5.9 +2.7 80 +3 +3 1029.2 1027.3 0.2
00 22.06 С 4 н/о н/о +10.8 +4.3 64 +9 +9 1029.4 1027.5
01 22.06 С 4 н/о н/о +11.8 +4.3 60 +10 +10 1029.5 1027.6
02 22.06 С 5 н/о 5/0
[]
+14.9 +4.3 49 +14 +14 1029.4 1027.5 +2.7
03 22.06 С 7 н/о н/о +15.4 +1.5 39 +14 +14 1028.3 1026.4
04 22.06 С 6 н/о н/о +15.5 +0.9 37 +14 +14 1027.2 1025.3
05 22.06 С 6 н/о 1/0
[]
+16.4 +1.3 36 +15 +15 1026.7 1024.8
06 22.06 С 5 н/о н/о +16.5 +1.8 37 +16 +16 1026.5 1024.6
07 22.06 СВ 4 н/о н/о +14.9 +2.1 42 +14 +14 1026.4 1024.5
08 22.06 СВ 4 н/о 10/0
[]
+12.2 +3.7 56 +11 +11 1026.6 1024.7
09 22.06 СВ 3 н/о н/о +8.8 +3.8 71 +6 +6 1027.1 1025.2
10 22.06 СВ 4 н/о н/о +6.7 +3.0 77 +3 +3 1027.4 1025.5
11 22.06 В 5 н/о 6/0
[]
+8.2 +3.3 71 +5 +5 1027.6 1025.7
12 22.06 В 5 н/о н/о +5.7 +2.4 79 +1 +1 1027.8 1025.9
13 22.06 СВ 5 н/о н/о +4.8 +1.7 80 0 0 1027.8 1025.9
14 22.06 В 5 н/о н/о +4.6 +1.5 80 -0 -0 1028.0 1026.1 +16.9
15 22.06 В 5 н/о н/о +3.8 +0.5 79 -1 -1 1027.6 1025.7
16 22.06 СВ 5 н/о н/о +5.3 +0.5 71 +1 +1 1027.8 1025.9
17 22.06 СВ 5 н/о н/о +3.9 +0.1 76 -1 -1 1028.1 1026.2
18 22.06 СВ 5 н/о н/о +4.0 +0.3 77 -1 -1 1028.2 1026.3
19 22.06 СВ 4 н/о н/о +2.3 -0.3 83 -3 -3 1028.4 1026.5
20 22.06 СВ 4 н/о н/о +2.3 -0.4 82 -3 -3 1028.4 1026.5
21 22.06 СВ 4 н/о н/о +2.6 0.0 83 -2 -2 1028.4 1026.5
22 22.06 СВ 5 н/о н/о +3.3 -0.3 77 -2 -2 1028.7 1026.8
23 22.06 СВ 4 н/о н/о +4.9 +0.9 75 +1 +1 1029.1 1027.2
00 23.06 СВ 7 н/о н/о +9.1 +2.0 61 +5 +5 1029.1 1027.2
01 23.06 СВ 5 н/о н/о +12.1 +3.3 55 +10 +10 1029.6 1027.7
02 23.06 СВ 6 н/о н/о +14.2 +2.1 44 +13 +13 1028.7 1026.8 +1.8
03 23.06 СВ 7 н/о н/о +15.7 +1.8 39 +14 +14 1027.6 1025.7
04 23.06 СВ 7 н/о н/о +15.6 -1.0 32 +14 +14 1026.5 1024.6
05 23.06 СВ 6 н/о н/о +16.1 -1.0 31 +15 +15 1026.2 1024.3
06 23.06 СВ 5 н/о н/о +16.1 -0.6 32 +15 +15 1026.2 1024.3
07 23.06 СВ 6 н/о н/о +15.6 -1.0 32 +14 +14 1025.7 1023.8
08 23.06 СВ 5 н/о н/о +12.4 -0.1 42 +11 +11 1025.1 1023.2
09 23.06 СВ 5 н/о н/о +7.4 +1.0 64 +4 +4 1025.5 1023.6
10 23.06 СВ 5 н/о н/о +6.3 +0.6 67 +3 +3 1025.9 1024.0
11 23.06 СВ 4 н/о н/о +4.7 +0.1 72 +1 +1 1026.3 1024.4
12 23.06 СВ 5 н/о н/о +6.2 -0.3 63 +2 +2 1026.5 1024.6
13 23.06 СВ 5 н/о н/о +5.5 -0.3 66 +1 +1 1026.2 1024.3
14 23.06 В 6 н/о н/о +5.3 -0.5 66 +1 +1 1025.2 1023.3 +16.8
15 23.06 СВ 6 н/о н/о +5.3 -0.5 66 +1 +1 1025.7 1023.8
16 23.06 С 4 н/о н/о +5.6 +0.6 70 +2 +2 1026.2 1024.3
17 23.06 СВ 6 н/о 10/0
[]
+7.1 -0.4 59 +3 +3 1025.9 1024.0
18 23.06 СВ 5 н/о н/о +6.8 -0.6 59 +3 +3 1025.9 1024.0
19 23.06 СВ 6 н/о н/о +7.2 -0.3 59 +3 +3 1025.8 1023.9
20 23.06 СВ 5 н/о 10/0
[]
+7.7 -0.3 57 +4 +4 1025.5 1023.6
21 23.06 СВ 6 н/о н/о +8.0 -0.7 54 +4 +4 1025.3 1023.4
22 23.06 СВ 5 н/о н/о +8.0 -0.2 56 +5 +5 1025.5 1023.6
23 23.06 СВ 6 н/о 10/0
[]
+8.6 +0.1 55 +5 +5 1025.4 1023.5
00 24.06 СВ 9 н/о н/о +10.3 -0.2 48 +7 +7 1025.4 1023.5
01 24.06 С 10 н/о н/о +11.4 +0.2 46 +8 +8 1025.8 1023.9
02 24.06 С 11 н/о 10/0
[]
+11.7 -0.1 44 +8 +8 1024.8 1022.9 +4.6
03 24.06 С 11 н/о н/о +13.4 +0.1 40 +11 +11 1024.0 1022.1
04 24.06 С 10 н/о н/о +13.4 +0.1 40 +11 +11 1023.0 1021.1
05 24.06 С 10 н/о 9/0 2000 м
[]
+12.1 +2.8 53 +9 +9 1022.5 1020.6
06 24.06 С 9 н/о н/о +11.6 +3.1 56 +8 +8 1022.3 1020.4
07 24.06 С 10 н/о н/о +12.0 +2.5 52 +9 +9 1021.6 1019.7
08 24.06 СВ 11 н/о 10/0
[]
+12.0 +1.1 47 +9 +9 1021.1 1019.2
09 24.06 СВ 10 н/о н/о +12.1 -0.1 43 +9 +9 1021.6 1019.7
10 24.06 С 6 н/о н/о +11.6 -0.5 43 +9 +9 1023.4 1021.5
11 24.06 С 6 н/о 9/0
[]
+11.9 -0.6 42 +10 +10 1024.7 1022.8
12 24.06 С 4 н/о н/о +10.2 +1.6 55 +8 +8 1025.8 1023.9
13 24.06 СВ 4 н/о н/о +10.6 +1.7 54 +8 +8 1025.7 1023.8
14 24.06 СВ 4 н/о н/о +9.2 +1.1 57 +7 +7 1025.7 1023.8 +14.9
15 24.06 СВ 4 н/о н/о +7.7 +0.7 61 +5 +5 1025.4 1023.5
16 24.06 СВ 4 н/о н/о +6.3 +0.6 67 +3 +3 1025.2 1023.3
17 24.06 СВ 5 н/о н/о +6.6 +0.3 64 +3 +3 1025.2 1023.3
18 24.06 СВ 3 н/о н/о +6.4 +0.1 64 +4 +4 1025.2 1023.3
19 24.06 СВ 4 н/о н/о +5.7 -0.1 66 +2 +2 1025.4 1023.5
20 24.06 СВ 4 н/о н/о +5.2 0.0 69 +1 +1 1025.8 1023.9
21 24.06 СВ 4 н/о н/о +4.9 -0.1 70 +1 +1 1026.5 1024.6
22 24.06 СВ 4 н/о н/о +4.8 0.0 71 +1 +1 1027.3 1025.4
23 24.06 СВ 5 н/о н/о +6.6 +0.7 66 +3 +3 1027.6 1025.7
00 25.06 СВ 5 н/о н/о +10.4 +1.2 53 +8 +8 1028.0 1026.1
01 25.06 С 5 н/о н/о +13.1 +1.1 44 +11 +11 1028.4 1026.5
02 25.06 С 5 н/о н/о +15.1 +2.0 41 +14 +14 1027.9 1026.0 +4.3
03 25.06 С 4 н/о н/о +17.3 +1.7 35 +17 +17 1027.2 1025.3
04 25.06 С 4 н/о н/о +18.0 +1.9 34 +18 +18 1026.5 1024.6
05 25.06 СВ 4 н/о н/о +19.1 +1.6 31 +19 +19 1026.0 1024.1
06 25.06 СВ 4 н/о н/о +19.1 +0.7 29 +19 +19 1026.1 1024.2
07 25.06 СВ 3 н/о н/о +18.9 0.0 28 +19 +19 1026.2 1024.3

 

Местоположение метеостанции Сидуна (Южная Австралия, Австралия): широта -32.13 долгота 133.70 высота над уровнем моря 16 м.

В архиве по умолчанию представлена погода в Сидуне за последнюю неделю. Архивные данные за месяц целиком и за предыдущие месяцы, начиная с января 2011 года, Вы можете получить, выбрав интересующий диапазон дат из раскрывающегося списка и нажав кнопку "Ввод!".


*Определитесь, кто Вы:
робот инопланетянин человек

Внимание! Время в таблицах - всемирное. Для получения местного времени необходимо прибавить поправку, которая равна 9.5 ч.

Смотрите также архив погоды в соседних городах и на ближайших метеорологических станциях:

Погода в Миннипа Пирса (Южная Австралия, Австралия) (158 км)
Погода в Таркуле (Южная Австралия, Австралия) (178 км)
Погода в Уудинне (Южная Австралия, Австралия) (193 км)
Погода в Наллаборе (Южная Австралия, Австралия) (275 км)
Погода в Колте (Южная Австралия, Австралия) (295 км)
Погода в Камминсе (Южная Австралия, Австралия) (302 км)
Погода на Аэродроме Вумера (Южная Австралия, Австралия) (314 км)
Погода в Кливе аэропорту (Южная Австралия, Австралия) (316 км)
Погода в Порт-Линкольне (Южная Австралия, Австралия) (341 км)
Погода в Олимпик Дэм (Южная Австралия, Австралия) (354 км)

Пояснения к столбцам:

Ветер - указаны скорость ветра в м/с - средняя за 10 мин, порывы в срок и между сроками (в фигурных скобках) и направление, откуда дует ветер: С - северный, СВ - северо-восточный, В - восточный, ЮВ - юго-восточный, Ю - южный, ЮЗ - юго-западный, З - западный, СЗ - северо-западный.
Видимость - горизонтальная дальность видимости в метрах или километрах. При видимости от 1 до 10 км при отсутствии осадков обычно наблюдается дымка, при ухудшении видимости до 1 км и менее - туман. В сухую погоду видимость может ухудшаться дымом, пылью или мглою.
Явления - указаны атмосферные явления, наблюдавшиеся в срок или в последний час перед сроком; фигурными скобками обозначены явления, наблюдавшиеся между сроками (за 1-3 часа до срока); квадратными скобками обозначены град или гололедные отложения с указанием их диаметра в мм.
Облачность - указаны через наклонную черту общая и нижняя облачность в баллах и высота нижней границы облаков в метрах; квадратными скобками обозначены формы облаков: Ci - перистые, Cs - перисто-слоистые, Cc - перисто-кучевые, Ac - высококучевые, As - высокослоистые, Sc - слоисто-кучевые, Ns - слоисто-дождевые, Cu - кучевые, Cb - кучево-дождевые. Подробнее классификацию облаков см. в Атласе облаков (PDF).
T - Температура воздуха - температура, измеренная на высоте 2 м над землей.
Td - Температура точки росы - температура, при понижении до которой содержащийся в воздухе водяной пар достигнет насыщения.
f - Относительная влажность воздуха - влажноcть воздуха, измеренная на высоте 2 м над землей.
Te - Эффективная температура - температура, которую ощущает одетый по сезону человек в тени. Характеристика душности погоды. При расчете учитывается влияние влажности воздуха и скорости ветра на теплоощущения человека.
Tes - Эффективная температура на солнце - температура, которую ощущает человек, с поправкой на солнечный нагрев. Характеристика знойности погоды. Зависит от высоты солнца над горизонтом, облачности и скорости ветра. Ночью, в пасмурную погоду, а также при ветре 12 м/с и более поправка равна нулю.
P - Атмосферное давление - приведенное к уровню моря атмосферное давление.
Po - Атмосферное давление - измеренное на уровне метеостанции атмосферное давление.
Tmin - Минимальная температура - минимум температуры воздуха на высоте 2 м над землей.
Tmax - Максимальная температура - максимум температуры воздуха на высоте 2 м над землей.
R - Количество осадков - Количество выпавших осадков за период времени, мм. При наведении курсора мыши на число - период времени, за который выпало указанное количество осадков.
R24 - Количество осадков - Количество выпавших осадков за 24 часа, мм.
S - Снежный покров - Высота снежного покрова, см. При наведении курсора мыши на число - состояние снежного покрова и степень покрытия местности в баллах.